�������l�o���
Date,Time,MP-1(��Sv/h),MP-2(��Sv/h),MP-3(��Sv/h),MP-4(��Sv/h),MP-5(��Sv/h),MP-6(��Sv/h),MP-7(��Sv/h),MP-8(��Sv/h),����,����(m/s),���J
2024/01/11,00:00,0.509,0.772,0.485,0.979,0.695,0.312,0.560,0.525,�k,8.7,��
2024/01/11,00:10,0.510,0.774,0.484,0.978,0.696,0.312,0.559,0.525,�k�k��,9.8,��
2024/01/11,00:20,0.509,0.773,0.484,0.977,0.698,0.311,0.561,0.524,�k�k��,7.7,��
2024/01/11,00:30,0.511,0.771,0.484,0.979,0.695,0.313,0.558,0.524,�k�k��,7.4,��
2024/01/11,00:40,0.509,0.774,0.483,0.978,0.695,0.311,0.561,0.524,�k�k��,6.7,��
2024/01/11,00:50,0.511,0.773,0.484,0.978,0.693,0.311,0.560,0.524,�k�k��,6.0,��
2024/01/11,01:00,0.511,0.774,0.483,0.978,0.696,0.312,0.559,0.525,�k�k��,5.7,��
2024/01/11,01:10,0.510,0.773,0.483,0.980,0.695,0.311,0.561,0.524,�k,5.9,��
2024/01/11,01:20,0.511,0.772,0.490,0.978,0.695,0.313,0.560,0.526,�k,6.5,��
2024/01/11,01:30,0.509,0.773,0.485,0.980,0.694,0.311,0.560,0.523,�k�k��,6.9,��
2024/01/11,01:40,0.510,0.774,0.484,0.978,0.695,0.312,0.559,0.524,�k�k��,7.0,��
2024/01/11,01:50,0.512,0.774,0.483,0.979,0.696,0.313,0.559,0.524,�k�k��,5.9,��
2024/01/11,02:00,0.509,0.774,0.484,0.980,0.694,0.312,0.559,0.523,�k�k��,6.4,��
2024/01/11,02:10,0.508,0.774,0.485,0.980,0.695,0.311,0.559,0.525,�k�k��,5.8,��
2024/01/11,02:20,0.510,0.772,0.484,0.979,0.696,0.312,0.560,0.525,�k�k��,5.7,��
2024/01/11,02:30,0.510,0.775,0.484,0.979,0.696,0.313,0.562,0.523,�k�k��,6.6,��
2024/01/11,02:40,0.511,0.773,0.484,0.978,0.694,0.312,0.561,0.525,�k�k��,6.7,��
2024/01/11,02:50,0.508,0.774,0.485,0.977,0.695,0.312,0.561,0.524,�k�k��,6.2,��
2024/01/11,03:00,0.510,0.771,0.486,0.979,0.695,0.312,0.559,0.524,�k�k��,7.3,��
2024/01/11,03:10,0.510,0.776,0.483,0.978,0.696,0.311,0.559,0.526,�k�k��,7.8,��
2024/01/11,03:20,0.509,0.772,0.484,0.980,0.694,0.311,0.560,0.524,�k�k��,6.7,��
2024/01/11,03:30,0.509,0.773,0.484,0.980,0.694,0.312,0.560,0.525,�k��,6.4,��
2024/01/11,03:40,0.510,0.773,0.483,0.979,0.695,0.312,0.560,0.524,�k��,5.9,��
2024/01/11,03:50,0.508,0.772,0.483,0.979,0.695,0.311,0.561,0.525,�k��,6.3,��
2024/01/11,04:00,0.511,0.773,0.484,0.979,0.694,0.313,0.560,0.525,�k��,6.2,��
2024/01/11,04:10,0.510,0.774,0.484,0.979,0.695,0.311,0.560,0.525,�k��,6.0,��
2024/01/11,04:20,0.511,0.774,0.484,0.980,0.694,0.312,0.562,0.524,�k��,6.3,��
2024/01/11,04:30,0.510,0.773,0.485,0.980,0.696,0.311,0.559,0.525,�k��,6.5,��
2024/01/11,04:40,0.510,0.772,0.484,0.978,0.694,0.312,0.560,0.526,�k��,6.2,��
2024/01/11,04:50,0.510,0.773,0.485,0.979,0.695,0.312,0.560,0.526,�k��,6.8,��
2024/01/11,05:00,0.511,0.773,0.486,0.979,0.694,0.313,0.560,0.524,�k�k��,6.9,��
2024/01/11,05:10,0.511,0.773,0.484,0.978,0.694,0.312,0.561,0.525,�k��,6.8,��
2024/01/11,05:20,0.510,0.774,0.485,0.980,0.694,0.312,0.561,0.523,�k��,6.7,��
2024/01/11,05:30,0.511,0.771,0.486,0.979,0.696,0.311,0.560,0.526,�k��,6.9,��
2024/01/11,05:40,0.510,0.775,0.485,0.982,0.695,0.312,0.561,0.524,�k�k��,7.1,��
2024/01/11,05:50,0.511,0.773,0.484,0.981,0.697,0.313,0.560,0.525,�k��,8.1,��
2024/01/11,06:00,0.510,0.773,0.484,0.981,0.696,0.312,0.560,0.526,�k��,7.8,��
2024/01/11,06:10,0.510,0.774,0.485,0.978,0.695,0.311,0.560,0.526,�k��,7.6,��
2024/01/11,06:20,0.511,0.773,0.486,0.980,0.695,0.312,0.561,0.525,�k�k��,7.4,��
2024/01/11,06:30,0.510,0.772,0.484,0.979,0.694,0.313,0.560,0.523,�k�k��,8.0,��
2024/01/11,06:40,0.511,0.773,0.485,0.976,0.695,0.312,0.561,0.526,�k�k��,8.3,��
2024/01/11,06:50,0.510,0.772,0.483,0.978,0.694,0.311,0.560,0.525,�k�k��,7.5,��
2024/01/11,07:00,0.512,0.772,0.487,0.980,0.694,0.312,0.561,0.524,�k�k��,7.5,��
2024/01/11,07:10,0.509,0.773,0.485,0.980,0.693,0.312,0.561,0.524,�k��,7.1,��
2024/01/11,07:20,0.509,0.771,0.483,0.979,0.695,0.312,0.562,0.526,�k��,7.1,��
2024/01/11,07:30,0.509,0.773,0.486,0.980,0.696,0.312,0.561,0.525,�k��,7.3,��
2024/01/11,07:40,0.510,0.772,0.485,0.979,0.696,0.311,0.560,0.525,�k��,7.1,��
2024/01/11,07:50,0.510,0.771,0.483,0.978,0.694,0.312,0.562,0.525,�k��,6.7,��
2024/01/11,08:00,0.510,0.772,0.485,0.978,0.693,0.311,0.561,0.525,�k��,7.5,��
2024/01/11,08:10,0.511,0.772,0.485,0.980,0.694,0.311,0.560,0.524,�k��,7.6,��
2024/01/11,08:20,0.510,0.771,0.483,0.980,0.693,0.311,0.562,0.525,�k��,6.9,��
2024/01/11,08:30,0.510,0.772,0.484,0.979,0.693,0.312,0.561,0.526,�k�k��,6.8,��
2024/01/11,08:40,0.511,0.775,0.483,0.980,0.693,0.311,0.561,0.525,�k��,6.9,��
2024/01/11,08:50,0.511,0.771,0.484,0.980,0.694,0.311,0.560,0.526,�k��,7.4,��
2024/01/11,09:00,0.511,0.772,0.484,0.978,0.694,0.311,0.563,0.526,�k��,7.5,��
2024/01/11,09:10,0.511,0.775,0.486,0.981,0.695,0.312,0.563,0.527,�k��,6.6,��
2024/01/11,09:20,0.512,0.775,0.485,0.980,0.694,0.312,0.562,0.527,�k��,6.1,��
2024/01/11,09:30,0.510,0.773,0.486,0.978,0.695,0.311,0.560,0.527,�k�k��,6.4,��
2024/01/11,09:40,0.512,0.772,0.485,0.980,0.694,0.312,0.563,0.526,�k��,6.7,��
2024/01/11,09:50,0.511,0.775,0.485,0.979,0.696,0.312,0.562,0.525,�k��,5.9,��
2024/01/11,10:00,0.510,0.774,0.487,0.980,0.695,0.312,0.561,0.525,�k��,6.0,��
2024/01/11,10:10,0.510,0.773,0.486,0.982,0.696,0.313,0.563,0.526,�k��,7.1,��
2024/01/11,10:20,0.510,0.775,0.485,0.981,0.694,0.312,0.563,0.526,�k��,6.6,��
2024/01/11,10:30,0.512,0.771,0.485,0.979,0.697,0.311,0.562,0.526,�k�k��,6.1,��
2024/01/11,10:40,0.512,0.775,0.485,0.983,0.696,0.312,0.562,0.528,�k��,5.8,��
2024/01/11,10:50,0.511,0.778,0.486,0.980,0.697,0.313,0.564,0.525,�k�k��,6.3,��
2024/01/11,11:00,0.510,0.773,0.484,0.982,0.697,0.314,0.561,0.527,�k�k��,5.5,��
2024/01/11,11:10,0.513,0.776,0.485,0.981,0.699,0.314,0.563,0.526,�k�k��,5.2,��
2024/01/11,11:20,0.510,0.775,0.485,0.982,0.695,0.313,0.563,0.527,�k�k��,6.0,��
2024/01/11,11:30,0.512,0.775,0.483,0.980,0.697,0.312,0.562,0.527,�k�k��,5.9,��
2024/01/11,11:40,0.512,0.778,0.485,0.980,0.696,0.312,0.563,0.528,�k�k��,5.9,��
2024/01/11,11:50,0.512,0.776,0.485,0.979,0.696,0.313,0.563,0.526,�k�k��,6.0,��
2024/01/11,12:00,0.512,0.776,0.484,0.982,0.697,0.313,0.563,0.528,�k,4.8,��
2024/01/11,12:10,0.512,0.775,0.485,0.981,0.698,0.312,0.564,0.526,�k�k��,5.9,��
2024/01/11,12:20,0.512,0.776,0.487,0.981,0.699,0.313,0.564,0.527,�k,6.0,��
2024/01/11,12:30,0.513,0.778,0.487,0.980,0.699,0.313,0.563,0.528,�k,6.3,��
2024/01/11,12:40,0.513,0.775,0.485,0.981,0.697,0.313,0.562,0.527,�k,5.5,��
2024/01/11,12:50,0.511,0.776,0.488,0.982,0.698,0.313,0.562,0.527,�k,5.7,��
2024/01/11,13:00,0.513,0.776,0.487,0.980,0.698,0.313,0.560,0.528,�k,6.7,��
2024/01/11,13:10,0.513,0.778,0.487,0.982,0.697,0.314,0.562,0.527,�k,6.3,��
2024/01/11,13:20,0.513,0.776,0.486,0.980,0.699,0.313,0.560,0.526,�k�k��,7.4,��
2024/01/11,13:30,0.513,0.776,0.487,0.980,0.699,0.314,0.562,0.526,�k,6.1,��
2024/01/11,13:40,0.514,0.777,0.487,0.981,0.699,0.313,0.562,0.526,�k�k��,6.5,��
2024/01/11,13:50,0.514,0.777,0.487,0.982,0.698,0.313,0.563,0.526,�k�k��,6.5,��
2024/01/11,14:00,0.514,0.775,0.488,0.981,0.698,0.313,0.564,0.526,�k�k��,6.7,��
2024/01/11,14:10,0.514,0.776,0.487,0.979,0.699,0.313,0.563,0.527,�k�k��,6.3,��
2024/01/11,14:20,0.513,0.778,0.487,0.980,0.697,0.314,0.564,0.526,�k�k��,6.1,��
2024/01/11,14:30,0.513,0.778,0.488,0.981,0.698,0.313,0.564,0.527,�k,4.9,��
2024/01/11,14:40,0.514,0.775,0.487,0.983,0.700,0.311,0.563,0.527,�k,5.5,��
2024/01/11,14:50,0.513,0.777,0.488,0.982,0.698,0.314,0.565,0.527,�k,5.4,��
2024/01/11,15:00,0.515,0.776,0.487,0.984,0.699,0.313,0.563,0.526,�k,4.8,��
2024/01/11,15:10,0.514,0.777,0.488,0.984,0.699,0.313,0.563,0.526,�k,4.7,��
2024/01/11,15:20,0.512,0.776,0.487,0.981,0.698,0.313,0.562,0.526,�k,4.8,��
2024/01/11,15:30,0.514,0.777,0.488,0.983,0.700,0.313,0.564,0.526,�k,4.6,��
2024/01/11,15:40,0.514,0.776,0.487,0.982,0.700,0.314,0.563,0.525,�k,4.3,��
2024/01/11,15:50,0.514,0.777,0.488,0.980,0.699,0.314,0.562,0.526,�k,3.9,��
2024/01/11,16:00,0.514,0.774,0.487,0.981,0.699,0.313,0.563,0.526,�k�k��,4.2,��
2024/01/11,16:10,0.512,0.777,0.487,0.981,0.699,0.313,0.563,0.526,�k�k��,4.5,��
2024/01/11,16:20,0.513,0.777,0.487,0.982,0.697,0.313,0.562,0.526,�k�k��,4.1,��
2024/01/11,16:30,0.512,0.775,0.488,0.982,0.699,0.313,0.561,0.525,�k�k��,4.3,��
2024/01/11,16:40,0.514,0.775,0.487,0.986,0.699,0.312,0.564,0.526,�k�k��,4.2,��
2024/01/11,16:50,0.511,0.776,0.487,0.984,0.699,0.315,0.563,0.526,�k�k��,4.1,��
2024/01/11,17:00,0.512,0.775,0.488,0.983,0.698,0.313,0.560,0.526,�k�k��,4.6,��
2024/01/11,17:10,0.512,0.777,0.488,0.979,0.698,0.314,0.564,0.526,�k�k��,6.1,��
2024/01/11,17:20,0.511,0.777,0.487,0.982,0.697,0.313,0.561,0.525,�k��,5.5,��
2024/01/11,17:30,0.514,0.777,0.488,0.981,0.697,0.312,0.561,0.525,�k��,6.6,��
2024/01/11,17:40,0.512,0.776,0.488,0.981,0.699,0.312,0.562,0.527,�k��,6.4,��
2024/01/11,17:50,0.512,0.775,0.486,0.982,0.698,0.312,0.562,0.527,�k��,6.0,��
2024/01/11,18:00,0.512,0.776,0.486,0.982,0.699,0.312,0.562,0.526,�k��,5.3,��
2024/01/11,18:10,0.512,0.777,0.487,0.981,0.698,0.313,0.561,0.525,�k��,5.1,��
2024/01/11,18:20,0.513,0.777,0.488,0.982,0.699,0.313,0.561,0.526,�k��,5.0,��
2024/01/11,18:30,0.511,0.774,0.486,0.982,0.698,0.314,0.561,0.525,�k��,5.2,��
2024/01/11,18:40,0.512,0.775,0.486,0.981,0.700,0.313,0.561,0.525,�k��,4.8,��
2024/01/11,18:50,0.511,0.775,0.487,0.983,0.699,0.312,0.561,0.526,�k��,4.4,��
2024/01/11,19:00,0.512,0.776,0.486,0.981,0.699,0.312,0.561,0.527,�k��,3.9,��
2024/01/11,19:10,0.512,0.776,0.486,0.983,0.699,0.314,0.560,0.525,�k��,4.4,��
2024/01/11,19:20,0.511,0.775,0.487,0.981,0.698,0.312,0.560,0.526,�k��,4.5,��
2024/01/11,19:30,0.513,0.776,0.485,0.982,0.698,0.313,0.561,0.527,�k��,4.2,��
2024/01/11,19:40,0.512,0.775,0.487,0.982,0.700,0.314,0.561,0.523,�k��,4.6,��
2024/01/11,19:50,0.512,0.775,0.487,0.985,0.699,0.314,0.560,0.525,�k��,4.2,��
2024/01/11,20:00,0.513,0.776,0.487,0.981,0.699,0.314,0.560,0.525,���k��,3.8,��
2024/01/11,20:10,0.511,0.775,0.486,0.980,0.698,0.313,0.561,0.527,���k��,3.1,��
2024/01/11,20:20,0.511,0.774,0.486,0.982,0.697,0.313,0.560,0.525,���k��,3.1,��
2024/01/11,20:30,0.511,0.774,0.486,0.981,0.699,0.313,0.561,0.525,���k��,2.6,��
2024/01/11,20:40,0.512,0.775,0.485,0.983,0.696,0.313,0.560,0.525,�k��,3.1,��
2024/01/11,20:50,0.512,0.776,0.486,0.984,0.698,0.313,0.560,0.526,�k��,3.1,��
2024/01/11,21:00,0.510,0.776,0.486,0.982,0.699,0.312,0.561,0.525,�k��,2.6,��
2024/01/11,21:10,0.510,0.775,0.486,0.983,0.697,0.314,0.560,0.525,���k��,1.7,��
2024/01/11,21:20,0.511,0.774,0.486,0.982,0.698,0.312,0.562,0.524,���k��,1.9,��
2024/01/11,21:30,0.511,0.777,0.486,0.983,0.698,0.313,0.561,0.526,���k��,1.5,��
2024/01/11,21:40,0.512,0.776,0.485,0.983,0.699,0.314,0.560,0.526,��,1.5,��
2024/01/11,21:50,0.512,0.775,0.486,0.983,0.698,0.313,0.560,0.525,���쐼,0.9,��
2024/01/11,22:00,0.513,0.775,0.485,0.981,0.696,0.313,0.560,0.525,��,1.2,��
2024/01/11,22:10,0.510,0.775,0.488,0.980,0.698,0.313,0.561,0.525,��,0.8,��
2024/01/11,22:20,0.511,0.775,0.487,0.981,0.699,0.313,0.560,0.525,���쐼,1.1,��
2024/01/11,22:30,0.512,0.775,0.485,0.979,0.698,0.313,0.560,0.526,���쐼,1.4,��
2024/01/11,22:40,0.511,0.773,0.486,0.981,0.698,0.312,0.560,0.526,�쐼,1.5,��
2024/01/11,22:50,0.511,0.776,0.487,0.981,0.698,0.314,0.560,0.525,�쐼,2.0,��
2024/01/11,23:00,0.512,0.775,0.486,0.983,0.696,0.313,0.561,0.525,��쐼,2.0,��
2024/01/11,23:10,0.512,0.776,0.486,0.981,0.697,0.314,0.560,0.525,�쐼,1.7,��
2024/01/11,23:20,0.511,0.774,0.486,0.981,0.696,0.313,0.560,0.525,��쐼,1.1,��
2024/01/11,23:30,0.511,0.775,0.485,0.983,0.698,0.313,0.562,0.525,��쐼,1.5,��
2024/01/11,23:40,0.511,0.774,0.487,0.982,0.695,0.313,0.559,0.525,��,1.9,��
2024/01/11,23:50,0.511,0.775,0.486,0.981,0.697,0.313,0.560,0.525,��,2.0,��
